CZ-3B R/B, 49331

Orbit data source: Space-Track

CZ-3B R/B, 49331 is space debris in HEO originally from a launch on Sun, 24 Oct 2021 UTC launched from the Xichang Space Center, China (XSC). Debris objects in space refer to the collection of defunct objects orbiting the Earth. Examples of debris include non-operational satellites, rocket bodies, and fragments generated from explosions, collisions, or faulty payload assembly.

Loading next visibility...
Identifier
49331, 2021-094B
Orbit
HEO
Country
Flag of CNCN / PRC
Related business
Manufacturer
CALT
Mission
Spacecraft
Bus & Motor
CZ-3A STAGE 3, Unknown motor
Mass
~2,800 kg wet, ~2,800 kg dry
Launch date (UTC)
2021-10-24 (5 years ago)
Launch vehicle
Unknown
Launch site
Xichang Space Center, China (XSC)
Object type
Payload
Rocket body
Debris
Shape & HBR
Cyl + 1 Nozzle, 6.2 m
Radar Cross Section
32.704 m², Large (>1 m²)

Expand to show TLE details & history
Last TLE update: 1 day ago

TLE from 1 day ago
0 CZ-3B R/B
1 49331U 21094B   26165.94184740  .00003679  00000-0  14604-2 0  9995
2 49331  28.0358 119.5174 7138636 162.2765 249.1939  2.45097265 40404
Epoch: 2026-06-14T22:36Z
TLE epoch observation values (Epoch: 2026-06-14T22:36:15.615Z)
Latitude
-0.00001°
Longitude
-122.80819°
Altitude
29,209.013 km
Speed
2.291 km/s
True Right ascension
07h 57m 58s
True Declination
0° 00' 00"
Sunlit
Object was in daylight at epoch
Visualization orbit readout
Latitude
Unknown
Longitude
Unknown
Altitude
Unknown
Speed
Unknown
Apparent Right ascension
Unknown
Apparent Declination
Unknown
Sunlit
N/A
Visualization observer readout
Local Sidereal Time
20:15:55
Azimuth
Unknown
Elevation
Unknown
Doppler factor
Unknown
Orbital elements
Apogee altitude
33,452.907 km
Perigee altitude
271.816 km
Semi-major axis
23,240.498 km
Eccentricity
0.71386
Inclination
28.0358°
RAAN
119.5174°
Arg. of periapsis
162.2765°
True anomaly
197.77596°
Mean anomaly
249.1939°
Eccentric anomaly
221.88605°
Mean motion
0.6126 °/min
Orbital period
587.66 mins
BSTAR
0.0014604
Loading maneuver chart data...
Computing Atmospheric mass density...
Loading historical data...
Loading historical data...
Loading historical data...
Loading historical data...
Loading historical data...
Loading historical data...
Loading historical data...
Other satellites on launch #94 in the year 2021 (2021-10-24 UTC)

Documentation

Showing up to 5 results
|